星链-35116(STARLINK-35116)

导读

STARLINK-35116是美国SpaceX公司星链(Starlink)星座的一员,于2025年10月19日由美国发射入轨。作为第二代星链卫星,它运行在近地轨道,配备相控阵天线与激光星间链路,可为全球偏远地区提供高速低延迟宽带互联网服务。星链星座计划部署数万颗卫星,该卫星的成功入轨进一步扩展了星座的全球覆盖能力,助力实现全球无缝网络连接的目标,目前处于在轨运行状态。

基本信息
目录编号:
66078
目录名称:
STARLINK-35116
国际标识:
2025-235W
轨道中心:
EARTH
卫星名称:
星链-35116
卫星全名:
星链-35116(STARLINK-35116)
卫星状态:
在轨 (已飞行237 天)
发射日期:
2025-10-19 UTC
国别 :
美国 (US)
星等 :
--
轨道信息
数据来源 国际轨道数据
星历时间: 2026-06-13T13:59:53+0800
6小时前
查看轨道信息
半长轴: 6853.306km
偏心率: 0.0002124
轨道倾角: 53.159°
近地点辐角 81.476°
升交点赤经 161.295°
平近点角 278.648°
近地点: 473.713km
远地点: 476.625km
周期: 94.104分钟
每日圈数: 15.302157
详细信息
固有亮度:
5
最大亮度:
2.5
卫星平台:
Starlink V1.0
覆盖范围:
全球
运营商:
太空探索技术公司
运营商所在国:
美国
制造商(研发单位):
太空探索技术公司
制造商所在国:
美国
使用方式:
暂无
卫星简介
Starlink 计划是 SpaceX 推出的全球卫星互联网项目,通过发射低轨道卫星,为全球尤其是偏远地区提供高速、低延迟的互联网服务。自 2019 年起,Starlink 已部署数千颗卫星,旨在缩小全球数字鸿沟,推动互联网普及。该项目还为军事、航空等行业提供通信支持,带来广泛经济效益。
2D轨道图
3D轨道图
轨道高度分析图
轨道倾角分析图
轨道综合分析图
查看轨道综合分析图